Creston, IA

1:01 PM CDT on May 21, 2018 (GMT -0500)
Creston Municipal

Weather History for KCSQ - November, 2011

Change the Weather History Date:

Wednesday, November 2, 2011

  Actual Average Record
Temperature  
Mean Temperature 42 °F -  
Max Temperature 51 °F 52 °F 77 °F (2005)
Min Temperature 33 °F 36 °F 9 °F (1991)
Degree Days  
Heating Degree Days 23    
Moisture  
Dew Point 35 °F    
Average Humidity 79    
Maximum Humidity 93    
Minimum Humidity 54    
Precipitation  
Precipitation 1.21 in - - ()
Sea Level Pressure  
Sea Level Pressure 30.05 in    
Wind  
Wind Speed 14 mph (North)    
Max Wind Speed 29 mph    
Max Gust Speed 39 mph    
Visibility 8 miles    
Events Rain    
Averages and records for this station are not official NWS values.
T = Trace of Precipitation, MM = Missing Value Source: NWS Daily Summary

Daily Weather History Graph

Daily Weather History Graph

Search for Another Location

Airport or City:

Astronomy

Nov. 02, 2011 Rise Set
Actual Time 7:49 AM CDT 6:12 PM CDT
Civil Twilight 7:20 AM CDT 6:40 PM CDT
Nautical Twilight 6:48 AM CDT 7:13 PM CDT
Astronomical Twilight 6:15 AM CDT 7:45 PM CDT
Moon 2:09 PM CDT (11/2) No Moon Set
Length of Visible Light 11h 20m
Length of Day
10h 23m
Waxing Crescent, 50% of the Moon is Illuminated
Nov 2
Waxing Crescent
Nov 10
Full
Nov 18
Last Quarter
Nov 25
New
Dec 2
First Quarter

Hourly Weather History & Observations

Time (CDT) Temp. Windchill Dew Point Humidity Pressure Visibility Wind Dir Wind Speed Gust Speed Precip Events Conditions
12:15 AM 51.8 °F - 35.6 °F 54% 29.93 in 10.0 mi ENE 4.6 mph - N/A   Overcast
12:35 AM 50.0 °F - 33.8 °F 54% 29.92 in 10.0 mi NE 9.2 mph - N/A   Mostly Cloudy
12:55 AM 50.0 °F - 33.8 °F 54% 29.94 in 10.0 mi North 10.4 mph - N/A   Mostly Cloudy
1:15 AM 50.0 °F - 33.8 °F 54% 29.94 in 10.0 mi NNE 12.7 mph - N/A   Overcast
1:35 AM 50.0 °F - 33.8 °F 54% 29.94 in 10.0 mi NNE 10.4 mph - N/A   Overcast
1:55 AM 48.2 °F - 33.8 °F 58% 29.95 in 10.0 mi North 11.5 mph - N/A   Overcast
2:15 AM 48.2 °F - 33.8 °F 58% 29.96 in 10.0 mi North 9.2 mph - N/A   Overcast
2:35 AM 48.2 °F - 33.8 °F 58% 29.96 in 10.0 mi North 12.7 mph 17.3 mph N/A   Overcast
2:55 AM 48.2 °F - 33.8 °F 58% 29.97 in 10.0 mi North 12.7 mph - N/A   Overcast
3:15 AM 46.4 °F 41.1 °F 32.0 °F 57% 29.97 in 10.0 mi North 11.5 mph - N/A   Overcast
3:35 AM 46.4 °F 41.1 °F 33.8 °F 62% 29.98 in 10.0 mi North 11.5 mph - N/A   Overcast
3:55 AM 46.4 °F 40.7 °F 32.0 °F 57% 29.98 in 10.0 mi North 12.7 mph 19.6 mph N/A   Overcast
4:55 AM 46.4 °F 39.8 °F 35.6 °F 66% 29.99 in 10.0 mi North 16.1 mph 20.7 mph N/A   Overcast
5:55 AM 46.4 °F 40.1 °F 35.6 °F 66% 30.00 in 10.0 mi NNE 15.0 mph 20.7 mph N/A   Overcast
6:15 AM 46.4 °F 39.0 °F 35.6 °F 66% 30.00 in 10.0 mi NNE 19.6 mph 25.3 mph N/A   Overcast
6:35 AM 46.4 °F 39.8 °F 35.6 °F 66% 30.02 in 10.0 mi NNE 16.1 mph 24.2 mph N/A   Overcast
6:55 AM 46.4 °F 39.2 °F 35.6 °F 66% 30.02 in 10.0 mi North 18.4 mph - N/A   Drizzle
7:35 AM 44.6 °F 37.8 °F 37.4 °F 76% 30.02 in 10.0 mi North 15.0 mph - 0.02 in Rain Rain
7:55 AM 44.6 °F 40.2 °F 39.2 °F 81% 30.06 in 5.0 mi NNE 8.1 mph - 0.11 in Rain Heavy Rain
8:15 AM 42.8 °F 35.4 °F 39.2 °F 87% 30.04 in 7.0 mi NNE 15.0 mph - 0.19 in Rain Rain
8:35 AM 42.8 °F 34.5 °F 39.2 °F 87% 30.00 in 4.0 mi NNE 18.4 mph 25.3 mph 0.29 in Rain Rain
8:55 AM 42.8 °F 36.2 °F 39.2 °F 87% 30.04 in 7.0 mi NE 12.7 mph 20.7 mph 0.35 in Rain Rain
9:15 AM 42.8 °F 36.2 °F 39.2 °F 87% 30.06 in 10.0 mi North 12.7 mph 18.4 mph 0.03 in Rain Light Rain
9:35 AM 42.8 °F 35.8 °F 39.2 °F 87% 30.08 in 10.0 mi North 13.8 mph - 0.04 in Rain Rain
9:55 AM 42.8 °F 35.8 °F 37.4 °F 81% 30.07 in 10.0 mi North 13.8 mph 19.6 mph 0.07 in Rain Light Rain
10:15 AM 42.8 °F 34.5 °F 37.4 °F 81% 30.05 in 3.0 mi North 18.4 mph 25.3 mph 0.04 in Rain Rain
10:35 AM 42.8 °F 34.8 °F 37.4 °F 81% 30.07 in 10.0 mi North 17.3 mph - 0.10 in Rain Light Rain
10:55 AM 41.0 °F 31.9 °F 37.4 °F 87% 30.03 in 4.0 mi NNE 19.6 mph 26.5 mph 0.20 in Rain Light Rain
11:15 AM 42.8 °F 34.0 °F 37.4 °F 81% 30.03 in 7.0 mi North 20.7 mph 27.6 mph 0.04 in Rain Rain
11:35 AM 42.8 °F 34.5 °F 37.4 °F 81% 30.04 in 10.0 mi NNE 18.4 mph 27.6 mph 0.07 in Rain Light Rain
11:55 AM 42.8 °F 34.5 °F 37.4 °F 81% 30.05 in 7.0 mi North 18.4 mph 28.8 mph 0.11 in Rain Rain
12:15 PM 41.0 °F 32.5 °F 37.4 °F 87% 30.08 in 7.0 mi North 17.3 mph 20.7 mph 0.06 in Rain Rain
12:35 PM 41.0 °F 31.6 °F 37.4 °F 87% 30.06 in 2.5 mi NNE 20.7 mph - 0.17 in Rain Light Rain
12:55 PM 41.0 °F 32.5 °F 37.4 °F 87% 30.07 in 10.0 mi North 17.3 mph 24.2 mph 0.19 in Rain Light Rain
1:15 PM 41.0 °F 30.7 °F 37.4 °F 87% 30.07 in 10.0 mi North 25.3 mph 32.2 mph N/A Rain Light Rain
1:35 PM 39.2 °F 29.0 °F 35.6 °F 87% 30.07 in 10.0 mi North 21.9 mph 39.1 mph N/A Rain Light Rain
1:55 PM 39.2 °F 28.3 °F 35.6 °F 87% 30.08 in 10.0 mi North 25.3 mph 32.2 mph 0.03 in Rain Light Rain
2:15 PM 39.2 °F 27.6 °F 35.6 °F 87% 30.06 in 4.0 mi North 28.8 mph 34.5 mph 0.02 in Rain Rain
2:35 PM 37.4 °F 26.4 °F 35.6 °F 93% 30.08 in 10.0 mi North 23.0 mph 36.8 mph 0.02 in Rain Light Rain
2:55 PM 37.4 °F 25.4 °F 33.8 °F 87% 30.09 in 5.0 mi North 27.6 mph 33.4 mph 0.04 in Rain Rain
3:15 PM 37.4 °F 26.6 °F 33.8 °F 87% 30.10 in 7.0 mi North 21.9 mph 29.9 mph 0.01 in Rain Light Rain
3:35 PM 35.6 °F 25.5 °F 33.8 °F 93% 30.10 in 10.0 mi North 17.3 mph 28.8 mph 0.02 in Rain Light Rain
3:55 PM 33.8 °F 23.5 °F 32.0 °F 93% 30.11 in 4.0 mi North 16.1 mph 24.2 mph 0.03 in Rain Rain
4:15 PM 33.8 °F 23.9 °F 30.2 °F 87% 30.12 in 2.5 mi North 15.0 mph 20.7 mph 0.03 in   Overcast
4:35 PM 33.8 °F 23.5 °F 30.2 °F 87% 30.11 in 3.0 mi North 16.1 mph - 0.05 in Rain Light Rain
4:55 PM 33.8 °F 23.9 °F 32.0 °F 93% 30.11 in 7.0 mi North 15.0 mph 20.7 mph 0.06 in Rain Light Rain
5:15 PM 35.6 °F 24.8 °F 33.8 °F 93% 30.11 in 7.0 mi North 19.6 mph 25.3 mph N/A   Light Drizzle
5:35 PM 37.4 °F 27.2 °F 33.8 °F 87% 30.12 in 10.0 mi North 19.6 mph 27.6 mph 0.01 in Rain Light Rain
5:55 PM 37.4 °F 26.4 °F 33.8 °F 87% 30.12 in 10.0 mi North 23.0 mph 27.6 mph 0.01 in Rain Light Rain
6:15 PM 37.4 °F 28.2 °F 33.8 °F 87% 30.15 in 10.0 mi North 16.1 mph 32.2 mph N/A   Light Drizzle
6:35 PM 35.6 °F 25.2 °F 33.8 °F 93% 30.13 in 7.0 mi North 18.4 mph 26.5 mph N/A   Light Drizzle
6:55 PM 35.6 °F 24.2 °F 33.8 °F 93% 30.11 in 10.0 mi North 21.9 mph 28.8 mph 0.01 in Rain Light Rain
7:15 PM 35.6 °F 24.2 °F 33.8 °F 93% 30.12 in 10.0 mi North 21.9 mph 27.6 mph N/A   Overcast
7:35 PM 37.4 °F 27.2 °F 33.8 °F 87% 30.14 in 10.0 mi North 19.6 mph 29.9 mph N/A   Drizzle
7:55 PM 37.4 °F 27.8 °F 33.8 °F 87% 30.14 in 10.0 mi North 17.3 mph - N/A   Light Drizzle
8:15 PM 37.4 °F 28.2 °F 33.8 °F 87% 30.14 in 10.0 mi North 16.1 mph - N/A   Overcast
8:35 PM 37.4 °F 28.2 °F 33.8 °F 87% 30.13 in 10.0 mi North 16.1 mph 23.0 mph N/A   Overcast
9:15 PM 37.4 °F 27.5 °F 33.8 °F 87% 30.11 in 10.0 mi North 18.4 mph 24.2 mph N/A   Overcast
9:35 PM 37.4 °F 28.2 °F 35.6 °F 93% 30.12 in 10.0 mi North 16.1 mph 23.0 mph N/A   Overcast
9:55 PM 37.4 °F 29.8 °F 35.6 °F 93% 30.15 in 10.0 mi North 11.5 mph 18.4 mph N/A   Overcast
10:15 PM 37.4 °F 28.9 °F 35.6 °F 93% 30.13 in 10.0 mi North 13.8 mph 21.9 mph N/A   Overcast
10:35 PM 37.4 °F 28.5 °F 35.6 °F 93% 30.12 in 10.0 mi North 15.0 mph - N/A   Overcast
10:55 PM 37.4 °F 28.2 °F 35.6 °F 93% 30.12 in 10.0 mi North 16.1 mph - N/A   Overcast
11:15 PM 37.4 °F 28.5 °F 35.6 °F 93% 30.13 in 10.0 mi North 15.0 mph - N/A   Overcast
11:35 PM 37.4 °F 28.9 °F 35.6 °F 93% 30.14 in 10.0 mi North 13.8 mph - N/A   Overcast
11:55 PM 39.2 °F 32.5 °F 35.6 °F 87% 30.14 in 10.0 mi North 10.4 mph - N/A   Overcast